Location: Caltech
(34.1382°N, 118.1253°W)
Time: 08:57:02
(UTC-08:00)

Iridium 65 - Visible Passes

Search period start: 14 February 2016 00:00
Search period end: 24 February 2016 00:00
Orbit: 776 x 779 km, 86.4° (Epoch: 13 February)

Date Brightness Start Highest point End Pass type
(mag) Time Alt. Az. Time Alt. Az. Time Alt. Az.
14 Feb 6.4 19:14:45 10° SSW 19:19:47 50° W 19:24:52 10° N visible
15 Feb 7.4 05:48:46 10° NNE 05:53:31 35° E 05:58:14 10° SSE visible
15 Feb 5.4 18:41:03 10° S 18:46:15 83° E 18:51:29 10° N visible
16 Feb 8.4 05:16:14 10° NE 05:19:48 18° E 05:23:19 10° ESE visible
16 Feb 5.9 18:07:57 10° SSE 18:12:49 42° E 18:17:43 10° NNE visible
16 Feb 8.2 19:50:14 10° WSW 19:53:41 18° W 19:57:09 10° NW visible
17 Feb 7.2 19:15:16 10° SSW 19:19:57 34° W 19:24:40 10° NNW visible
18 Feb 6.5 05:48:35 10° N 05:53:41 52° E 05:58:44 10° SSE visible
18 Feb 5.9 18:41:11 10° S 18:46:21 66° W 18:51:32 10° N visible
19 Feb 7.8 05:15:38 10° NNE 05:20:01 27° E 05:24:23 10° SE visible
19 Feb 5.5 18:07:43 10° S 18:12:50 64° E 18:18:00 10° N visible
19 Feb 8.7 19:52:12 10° W 19:53:58 12° WNW 19:55:45 10° NW visible
20 Feb 8.6 04:43:34 10° NE 04:46:14 14° ENE 04:48:55 10° ESE visible
20 Feb 8.0 19:16:05 10° SW 19:20:09 23° W 19:24:14 10° NNW visible
21 Feb 5.7 05:48:33 10° N 05:53:47 79° E 05:59:00 10° S visible
21 Feb 6.8 18:41:32 10° SSW 18:46:28 44° W 18:51:26 10° NNW visible
22 Feb 7.0 05:15:19 10° NNE 05:20:12 40° E 05:25:04 10° SSE visible
22 Feb 5.6 18:07:42 10° S 18:12:53 86° W 18:18:08 10° N visible
23 Feb 8.1 04:42:36 10° NNE 04:46:31 21° E 04:50:22 10° SE visible
23 Feb 8.6 19:17:23 10° WSW 19:20:24 15° WNW 19:23:26 10° NW visible
